Regional Weather Roundup
Issued by NWS Raleigh/Durham, NC

Home | Current Version | Previous Version | Text Only | Print | Product List | Glossary On
Versions: 1 2 3 4 5 6 7 8 9 10 11 12 13 14 15 16 17 18 19 20 21 22 23 24 25 26 27 28
000
ASUS42 KRAH 022310
RWRRAH
NORTH CAROLINA WEATHER ROUNDUP
NATIONAL WEATHER SERVICE RALEIGH NC
600 PM EST FRI DEC 02 2016

NOTE: "FAIR" INDICATES FEW OR NO CLOUDS BELOW 12,000 FEET WITH NO
SIGNIFICANT WEATHER AND/OR OBSTRUCTIONS TO VISIBILITY.

NCZ001-053-055-056-065-067-030000-
WESTERN NORTH CAROLINA

CITY           SKY/WX    TMP DP  RH WIND       PRES   REMARKS
ASHEVILLE      CLEAR     47  21  35 N6        30.18R
JEFFERSON      CLEAR     39  23  51 NW7       30.09S WCI  34
MORGANTON      CLEAR     49  22  34 W5        30.18S
HICKORY        CLEAR     51  20  29 NW9       30.13R
RUTHERFORDTON  CLEAR     52  21  30 W8        30.14S
MOUNT AIRY     CLEAR     50  27  39 W6        30.12S
BOONE          CLEAR     40  22  49 W24G31    30.09F WCI  29
$$

NCZ021-022-025-041-071-084-088-030000-
CENTRAL NORTH CAROLINA

CITY           SKY/WX    TMP DP  RH WIND       PRES   REMARKS
CHARLOTTE      PTCLDY    52  27  38 CALM      30.13S
GREENSBORO     PTCLDY    48  26  42 NW9       30.10R
WINSTON-SALEM  CLEAR     52  21  29 NW5       30.12R
RALEIGH-DURHAM PTCLDY    47  29  49 W5        30.11R
FORT BRAGG     CLEAR     51  34  53 CALM      30.11R
FAYETTEVILLE   CLEAR     52  35  52 W6        30.12S
BURLINGTON     CLEAR     48  31  51 CALM      30.10R
LAURINBURG     CLEAR     49  36  61 W3        30.14R
$$

NCZ011-015-027-028-043-044-047-080-103-030000-
NORTHEASTERN NORTH CAROLINA

CITY           SKY/WX    TMP DP  RH WIND       PRES   REMARKS
ROCKY MT-WILSO CLEAR     47  34  60 CALM      30.10R
GREENVILLE     CLEAR     52  32  46 CALM      30.11S
WASHINGTON     CLEAR     46  34  62 CALM      30.10R
ELIZABETH CITY CLEAR     46  33  60 W3        30.07R
MANTEO         CLEAR     50  36  58 NW5       30.09R
CAPE HATTERAS  CLEAR     52  39  61 W9        30.09R
$$

NCZ078-087-090-091-093-098-101-030000-
SOUTHEASTERN NORTH CAROLINA

CITY           SKY/WX    TMP DP  RH WIND       PRES   REMARKS
LUMBERTON      CLEAR     46  36  68 SW5       30.13R
GOLDSBORO      CLEAR     51  31  46 SW5       30.09R
KINSTON        CLEAR     41  36  81 CALM      30.11R
KENANSVILLE    CLEAR     45  36  70 CALM      30.12R
NEW BERN       CLEAR     45  36  70 CALM      30.12R
CHERRY POINT   PTCLDY    46  36  68 W5        30.12R
BEAUFORT       CLEAR     51  38  60 W9        30.11R
JACKSONVILLE   CLEAR     50  35  56 W5        30.11R
WILMINGTON     CLEAR     49  36  61 CALM      30.13R
$$





USA.gov is the U.S. government's official web portal to all federal, state and local government web resources and services.